Погода METAR - Новосибирск (Толмачево)

Код аэропорта ICAO:
Кемерово, Абакан, Красноярск, Новосибирск
Код METAR: UNNT 030830Z 04006MPS CAVOK 27/12 Q1015 R34/090070 R25/090070 NOSIG RMK QFE751/1002
TAF UNNT 030800Z 0309/0409 06005G13MPS CAVOK 
     TEMPO 0309/0313 03008G17MPS 
     BECMG 0313/0316 02003G08MPS 
     TEMPO 0403/0409 04008G17MPS
       

Погода - Сейчас

Время: 2020-08-03 15:30, местное
Направление ветра: Северо-восток (40°)
Скорость ветра: 6 м/с
Видимость: более 10км, отсутствие осадков и облаков
Температура: 27°C
Точка росы: 12°C
Атмосферное давление: 1015 гПа

Архив погоды

Время, местное Направление Скорость, м/с Температура, °C Точка росы, °C Давление, гПа
2020-08-03 15:30 СВ (40°) 6 27 12 1015
2020-08-03 12:30 СВ (40°) 6 27 13 1016
2020-08-03 11:00 СВ (40°) 5 25 13 1017
2020-08-01 19:00 СЗ (310°) 2 25 12 1015
2020-07-31 07:00 ЮВ (140°) 2 12 10 1013
2020-07-31 06:00 ЮВ (140°) 2 10 9 1013
2020-07-27 06:00 ЗСЗ (290°) 2 11 11 1010
2020-07-26 14:30 С (10°) 3 20 15 1006
2020-07-26 09:30 ССВ (20°) 2 16 16 1005
2020-07-26 03:00 Штиль 0 11 11 1006
2020-07-25 06:30 ВСВ (60°) 2 14 14 1005
2020-07-24 21:30 СВ (50°) 4 19 9 1007
2020-07-24 16:00 СВ (50°) 3 23 8 1009
2020-07-24 06:30 СЗ (310°) 1 6 6 1011
2020-07-23 22:00 СЗ (320°) 2 13 8 1009
2020-07-23 12:30 С (350°) 3 19 11 1008
2020-07-22 22:00 З (270°) 1 15 15 1008
2020-07-22 19:00 С (350°) 7 15 14 1009
2020-07-22 18:00 ССЗ (340°) 3 23 11 1007
2020-07-22 06:30 З (270°) 2 11 11 1007
2020-07-21 08:30 С (350°) 4 16 14 1003
2020-07-20 15:30 Переменный 2 29 17 1001
2020-07-19 20:00 ССЗ (340°) 2 26 17 1007
2020-07-19 07:00 С (360°) 2 14 13 1012
2020-07-19 01:30 С (350°) 2 13 12 1013
2020-07-18 08:00 СВ (40°) 2 18 14 1016
2020-07-18 06:30 С (10°) 3 13 12 1016
2020-07-16 19:00 З (270°) 4 26 16 1016
2020-07-16 03:00 СЗ (320°) 1 10 10 1020
2020-07-13 16:30 ССЗ (340°) 3 22 15 1010
2020-07-12 08:30 Переменный 1 20 16 1010
2020-07-10 12:00 С (350°) 5 18 15 998
2020-07-08 17:30 С (10°) 4 27 15 1012
2020-07-08 00:00 З (270°) 2 17 14 1010
2020-07-07 20:00 СЗ (310°) 2 24 16 1008
2020-07-07 17:00 СЗ (300°) 4 25 14 1008
2020-07-07 01:00 ЗСЗ (290°) 2 16 16 1006
2020-07-06 14:30 ЗСЗ (290°) 3 22 18 1004
2020-07-06 02:30 ССЗ (340°) 2 16 16 1005
2020-07-05 18:00 ВСВ (60°) 3 22 17 1004
2020-07-04 03:30 ЮЗ (230°) 1 17 17 1005
2020-07-01 05:00 Штиль 0 13 12 1013
2020-06-29 08:30 Ю (170°) 7 18 8 1010
2020-06-29 06:00 ЮЮВ (160°) 4 14 8 1011
2020-06-28 04:00 ЮЮВ (150°) 3 19 13 996
2020-06-28 03:30 ЮВ (140°) 4 19 13 996
2020-06-27 10:00 ЮВ (130°) 5 26 15 996
2020-06-27 06:30 В (80°) 2 18 14 998